Weather History for Farnborough, United Kingdom

Change the Weather History Date:

Sunday, April 13, 2014

  Actual Average (EGLL) Record (EGLL)
Temperature  
Mean Temperature 52 °F -  
Max Temperature 59 °F 55 °F 64 °F (2003)
Min Temperature 44 °F 39 °F 33 °F (1998)
Degree Days  
Heating Degree Days 14    
Growing Degree Days 2 (Base 50)    
Moisture  
Dew Point 41 °F    
Average Humidity 62    
Maximum Humidity 95    
Minimum Humidity 39    
Precipitation  
Precipitation 0.00 in - - ()
Sea Level Pressure  
Sea Level Pressure 30.18 in    
Wind  
Wind Speed 7 mph ()    
Max Wind Speed 14 mph    
Max Gust Speed -    
Visibility 8.8 miles    
Events      
Averages and records for this station are not official NWS values.
T = Trace of Precipitation, MM = Missing Value Source: Averaged Metar Reports

Daily Weather History Graph

Daily Weather History Graph

Search for Another Location

Airport:

Trip Planner

Search our weather history database for the weather conditions in past years. The results will help you decide how hot, cold, wet, or windy it might be!

Date:

Astronomy

Apr. 13, 2014 Rise Set
Actual Time 6:12 AM BST 7:55 PM BST
Civil Twilight 5:37 AM BST 8:30 PM BST
Nautical Twilight 4:54 AM BST 9:14 PM BST
Astronomical Twilight 4:06 AM BST 10:02 PM BST
Moon 6:09 PM BST (4/13) 5:16 AM BST (4/13)
Length of Visible Light 14h 53m
Length of Day
13h 43m
Waxing Gibbous, 96% of the Moon is Illuminated
Apr 13
Waxing Gibbous
Apr 15
Full
Apr 22
Last Quarter
Apr 29
New
May 7
First Quarter

Hourly Weather History & Observations

Time (BST) Temp. Dew Point Humidity Pressure Visibility Wind Dir Wind Speed Gust Speed Precip Events Conditions
12:00 AM 47 °F 44 °F 87% 30.14 in 6 mi West 5.8 mph - -   Scattered Clouds
1:00 AM 48 °F 45 °F 86% 30.13 in 7 mi West 6.9 mph - -   Partly Cloudy
2:00 AM 48 °F 46 °F 88% 30.13 in 7 mi West 9.2 mph - -   Partly Cloudy
3:00 AM 47 °F 45 °F 90% 30.13 in 6 mi West 5.8 mph - -   Scattered Clouds
4:00 AM 46 °F 45 °F 95% 30.14 in 5 mi West 5.8 mph - -   Scattered Clouds
5:00 AM 48 °F 46 °F 90% 30.15 in 5 mi West 4.6 mph - -   Partly Cloudy
6:00 AM 48 °F 46 °F 88% 30.17 in 4 mi WNW 4.6 mph - -   Mostly Cloudy
7:00 AM 47 °F 45 °F 90% 30.20 in 4 mi NW 2.3 mph - -   Scattered Clouds
7:50 AM 48.2 °F 46.4 °F 93% 30.21 in 4.3 mi Variable 3.5 mph - N/A   Partly Cloudy
8:00 AM 48 °F 45 °F 87% 30.22 in 6 mi NW 3.5 mph - -   Scattered Clouds
8:20 AM 48.2 °F 44.6 °F 87% 30.21 in 6.2 mi NNW 4.6 mph - N/A   Scattered Clouds
8:50 AM 50.0 °F 41.0 °F 71% 30.21 in 6.2 mi NNW 6.9 mph - N/A   Partly Cloudy
9:00 AM 50 °F 42 °F 65% 30.23 in 12 mi NNW 4.6 mph - -   Scattered Clouds
9:20 AM 50.0 °F 41.0 °F 71% 30.21 in 6.2 mi NNW 8.1 mph - N/A   Scattered Clouds
9:50 AM 51.8 °F 41.0 °F 67% 30.21 in 6.2 mi NNW 9.2 mph - N/A   Scattered Clouds
10:00 AM 51 °F 40 °F 56% 30.23 in 15 mi NNW 8.1 mph - -   Partly Cloudy
10:20 AM 51.8 °F 39.2 °F 62% 30.21 in 6.2 mi NNW 8.1 mph - N/A   Partly Cloudy
10:50 AM 51.8 °F 37.4 °F 58% 30.21 in 6.2 mi NW 5.8 mph - N/A   Partly Cloudy
11:00 AM 52 °F 39 °F 49% 30.23 in 14 mi NNW 5.8 mph - -   Partly Cloudy
11:20 AM 53.6 °F 37.4 °F 54% 30.21 in 6.2 mi WNW 9.2 mph - N/A   Partly Cloudy
11:50 AM 53.6 °F 37.4 °F 54% 30.21 in 6.2 mi NNW 8.1 mph - N/A   Partly Cloudy
12:00 PM 53 °F 37 °F 44% 30.22 in 16 mi NW 9.2 mph - -  
12:20 PM 55.4 °F 39.2 °F 54% 30.21 in 6.2 mi WNW 9.2 mph - N/A   Partly Cloudy
12:50 PM 55.4 °F 37.4 °F 51% 30.21 in 6.2 mi WNW 9.2 mph - N/A   Partly Cloudy
1:00 PM 54 °F 37 °F 40% 30.21 in 18 mi WNW 8.1 mph - -  
1:20 PM 55.4 °F 37.4 °F 51% 30.21 in 6.2 mi WNW 8.1 mph - N/A   Partly Cloudy
1:50 PM 57.2 °F 41.0 °F 55% 30.18 in 6.2 mi WNW 6.9 mph - N/A   Partly Cloudy
2:00 PM 56 °F 39 °F 41% 30.21 in 10 mi West 9.2 mph - -  
2:20 PM 57.2 °F 39.2 °F 51% 30.18 in 6.2 mi NW 10.4 mph - N/A   Partly Cloudy
2:50 PM 59.0 °F 42.8 °F 55% 30.18 in 6.2 mi West 9.2 mph - N/A   Partly Cloudy
3:00 PM 59 °F 42 °F 43% 30.19 in 16 mi WNW 10.4 mph - -   Scattered Clouds
3:20 PM 59.0 °F 39.2 °F 48% 30.18 in 6.2 mi West 13.8 mph - N/A   Partly Cloudy
3:50 PM 60.8 °F 41.0 °F 48% 30.15 in 6.2 mi WNW 10.4 mph - N/A   Partly Cloudy
4:00 PM 59 °F 41 °F 39% 30.17 in 17 mi West 10.4 mph - -  
4:20 PM 59.0 °F 41.0 °F 51% 30.15 in 6.2 mi WNW 9.2 mph - N/A   Partly Cloudy
4:50 PM 59.0 °F 41.0 °F 51% 30.15 in 6.2 mi WNW 9.2 mph - N/A   Partly Cloudy
5:00 PM 59 °F 42 °F 41% 30.17 in 16 mi WNW 10.4 mph - -  
5:20 PM 59.0 °F 41.0 °F 51% 30.15 in 6.2 mi West 9.2 mph - N/A   Partly Cloudy
5:50 PM 59.0 °F 41.0 °F 51% 30.15 in - West 9.2 mph - N/A   Clear
6:00 PM 59 °F 42 °F 41% 30.16 in 17 mi WNW 10.4 mph - -  
6:20 PM 57.2 °F 39.2 °F 51% 30.15 in 6.2 mi West 6.9 mph - N/A   Partly Cloudy
6:50 PM 57.2 °F 41.0 °F 55% 30.15 in - West 10.4 mph - N/A   Clear
7:00 PM 58 °F 42 °F 44% 30.15 in 16 mi West 10.4 mph - -  
7:20 PM 55.4 °F 42.8 °F 63% 30.15 in - WSW 13.8 mph - N/A   Clear
8:00 PM 54 °F 43 °F 56% 30.15 in 12 mi West 11.5 mph - -  
9:00 PM 52 °F 43 °F 61% 30.16 in 13 mi West 8.1 mph - -  
10:00 PM 50 °F 42 °F 67% 30.17 in 12 mi West 9.2 mph - -  
11:00 PM 48 °F 42 °F 71% 30.19 in 12 mi WNW 8.1 mph - -